owner,sensor,date,latitude,longitude,relative_humidity,qcFlag 
COMPS,ioos:station:USF.COMPS:ARP:1,2016-02-01T00:00:00Z,28.4330,-82.6670,76.98,1111122 
COMPS,ioos:station:USF.COMPS:ARP:1,2016-02-01T00:06:00Z,28.4330,-82.6670,77.74,1111122 
COMPS,ioos:station:USF.COMPS:ARP:1,2016-02-01T00:12:00Z,28.4330,-82.6670,80.54,1111122 
COMPS,ioos:station:USF.COMPS:ARP:1,2016-02-01T00:18:00Z,28.4330,-82.6670,82.41,1111122 
COMPS,ioos:station:USF.COMPS:ARP:1,2016-02-01T00:24:00Z,28.4330,-82.6670,82.72,1111122 
COMPS,ioos:station:USF.COMPS:ARP:1,2016-02-01T00:30:00Z,28.4330,-82.6670,82.69,1111122 
COMPS,ioos:station:USF.COMPS:ARP:1,2016-02-01T00:36:00Z,28.4330,-82.6670,82.8,1111122 
COMPS,ioos:station:USF.COMPS:ARP:1,2016-02-01T00:42:00Z,28.4330,-82.6670,83.45,1111122 
COMPS,ioos:station:USF.COMPS:ARP:1,2016-02-01T00:48:00Z,28.4330,-82.6670,83.43,1111122 
COMPS,ioos:station:USF.COMPS:ARP:1,2016-02-01T00:54:00Z,28.4330,-82.6670,84.19,1111122 
COMPS,ioos:station:USF.COMPS:ARP:1,2016-02-01T03:00:00Z,28.4330,-82.6670,79.57,1111122 
COMPS,ioos:station:USF.COMPS:ARP:1,2016-02-01T03:06:00Z,28.4330,-82.6670,79.31,1111122 
COMPS,ioos:station:USF.COMPS:ARP:1,2016-02-01T03:12:00Z,28.4330,-82.6670,80.21,1111122 
COMPS,ioos:station:USF.COMPS:ARP:1,2016-02-01T03:18:00Z,28.4330,-82.6670,82.74,1111122 
COMPS,ioos:station:USF.COMPS:ARP:1,2016-02-01T03:24:00Z,28.4330,-82.6670,83.09,1111122 
COMPS,ioos:station:USF.COMPS:ARP:1,2016-02-01T03:30:00Z,28.4330,-82.6670,82.15,1111122 
COMPS,ioos:station:USF.COMPS:ARP:1,2016-02-01T03:36:00Z,28.4330,-82.6670,84.46,1111122 
COMPS,ioos:station:USF.COMPS:ARP:1,2016-02-01T03:42:00Z,28.4330,-82.6670,84.68,1111122 
COMPS,ioos:station:USF.COMPS:ARP:1,2016-02-01T03:48:00Z,28.4330,-82.6670,85.01,1111122 
COMPS,ioos:station:USF.COMPS:ARP:1,2016-02-01T03:54:00Z,28.4330,-82.6670,85.03,1111122 
COMPS,ioos:station:USF.COMPS:ARP:1,2016-02-01T04:00:00Z,28.4330,-82.6670,83.23,1111122 
COMPS,ioos:station:USF.COMPS:ARP:1,2016-02-01T04:06:00Z,28.4330,-82.6670,82.49,1111122 
COMPS,ioos:station:USF.COMPS:ARP:1,2016-02-01T04:12:00Z,28.4330,-82.6670,82.6,1111122 
COMPS,ioos:station:USF.COMPS:ARP:1,2016-02-01T04:18:00Z,28.4330,-82.6670,83.4,1111122 
COMPS,ioos:station:USF.COMPS:ARP:1,2016-02-01T04:24:00Z,28.4330,-82.6670,83.0,1111122 
COMPS,ioos:station:USF.COMPS:ARP:1,2016-02-01T04:30:00Z,28.4330,-82.6670,82.21,1111122 
COMPS,ioos:station:USF.COMPS:ARP:1,2016-02-01T04:36:00Z,28.4330,-82.6670,81.19,1111122 
COMPS,ioos:station:USF.COMPS:ARP:1,2016-02-01T04:42:00Z,28.4330,-82.6670,80.34,1111122 
COMPS,ioos:station:USF.COMPS:ARP:1,2016-02-01T04:48:00Z,28.4330,-82.6670,80.92,1111122 
COMPS,ioos:station:USF.COMPS:ARP:1,2016-02-01T04:54:00Z,28.4330,-82.6670,80.23,1111122 
COMPS,ioos:station:USF.COMPS:ARP:1,2016-02-01T05:00:00Z,28.4330,-82.6670,79.57,1111122 
COMPS,ioos:station:USF.COMPS:ARP:1,2016-02-01T05:06:00Z,28.4330,-82.6670,78.88,1111122 
COMPS,ioos:station:USF.COMPS:ARP:1,2016-02-01T05:12:00Z,28.4330,-82.6670,79.44,1111122 
COMPS,ioos:station:USF.COMPS:ARP:1,2016-02-01T05:18:00Z,28.4330,-82.6670,79.02,1111122 
COMPS,ioos:station:USF.COMPS:ARP:1,2016-02-01T05:24:00Z,28.4330,-82.6670,78.77,1111122 
COMPS,ioos:station:USF.COMPS:ARP:1,2016-02-01T05:30:00Z,28.4330,-82.6670,78.63,1111122 
COMPS,ioos:station:USF.COMPS:ARP:1,2016-02-01T05:36:00Z,28.4330,-82.6670,78.81,1111122 
COMPS,ioos:station:USF.COMPS:ARP:1,2016-02-01T05:42:00Z,28.4330,-82.6670,79.21,1111122 
COMPS,ioos:station:USF.COMPS:ARP:1,2016-02-01T05:48:00Z,28.4330,-82.6670,78.39,1111122 
COMPS,ioos:station:USF.COMPS:ARP:1,2016-02-01T05:54:00Z,28.4330,-82.6670,79.4,1111122 
COMPS,ioos:station:USF.COMPS:ARP:1,2016-02-01T06:00:00Z,28.4330,-82.6670,79.49,1111122 
COMPS,ioos:station:USF.COMPS:ARP:1,2016-02-01T06:06:00Z,28.4330,-82.6670,79.91,1111122 
COMPS,ioos:station:USF.COMPS:ARP:1,2016-02-01T06:12:00Z,28.4330,-82.6670,80.54,1111122 
COMPS,ioos:station:USF.COMPS:ARP:1,2016-02-01T06:18:00Z,28.4330,-82.6670,80.76,1111122 
COMPS,ioos:station:USF.COMPS:ARP:1,2016-02-01T06:24:00Z,28.4330,-82.6670,80.57,1111122 
COMPS,ioos:station:USF.COMPS:ARP:1,2016-02-01T06:30:00Z,28.4330,-82.6670,80.33,1111122 
COMPS,ioos:station:USF.COMPS:ARP:1,2016-02-01T06:36:00Z,28.4330,-82.6670,80.45,1111122 
COMPS,ioos:station:USF.COMPS:ARP:1,2016-02-01T06:42:00Z,28.4330,-82.6670,80.81,1111122 
COMPS,ioos:station:USF.COMPS:ARP:1,2016-02-01T06:48:00Z,28.4330,-82.6670,81.59,1111122 
COMPS,ioos:station:USF.COMPS:ARP:1,2016-02-01T06:54:00Z,28.4330,-82.6670,81.44,1111122 
COMPS,ioos:station:USF.COMPS:ARP:1,2016-02-01T07:00:00Z,28.4330,-82.6670,81.87,1111122 
COMPS,ioos:station:USF.COMPS:ARP:1,2016-02-01T07:06:00Z,28.4330,-82.6670,82.07,1111122 
COMPS,ioos:station:USF.COMPS:ARP:1,2016-02-01T07:12:00Z,28.4330,-82.6670,82.17,1111122 
COMPS,ioos:station:USF.COMPS:ARP:1,2016-02-01T07:18:00Z,28.4330,-82.6670,82.16,1111122 
COMPS,ioos:station:USF.COMPS:ARP:1,2016-02-01T07:24:00Z,28.4330,-82.6670,82.11,1111122 
COMPS,ioos:station:USF.COMPS:ARP:1,2016-02-01T07:30:00Z,28.4330,-82.6670,82.43,1111122 
COMPS,ioos:station:USF.COMPS:ARP:1,2016-02-01T07:36:00Z,28.4330,-82.6670,82.27,1111122 
COMPS,ioos:station:USF.COMPS:ARP:1,2016-02-01T07:42:00Z,28.4330,-82.6670,82.51,1111122 
COMPS,ioos:station:USF.COMPS:ARP:1,2016-02-01T07:48:00Z,28.4330,-82.6670,82.36,1111122 
COMPS,ioos:station:USF.COMPS:ARP:1,2016-02-01T07:54:00Z,28.4330,-82.6670,82.56,1111122 
COMPS,ioos:station:USF.COMPS:ARP:1,2016-02-01T08:00:00Z,28.4330,-82.6670,82.97,1111122 
COMPS,ioos:station:USF.COMPS:ARP:1,2016-02-01T08:06:00Z,28.4330,-82.6670,82.83,1111122 
COMPS,ioos:station:USF.COMPS:ARP:1,2016-02-01T08:12:00Z,28.4330,-82.6670,82.76,1111122 
COMPS,ioos:station:USF.COMPS:ARP:1,2016-02-01T08:18:00Z,28.4330,-82.6670,82.7,1111122 
COMPS,ioos:station:USF.COMPS:ARP:1,2016-02-01T08:24:00Z,28.4330,-82.6670,82.73,1111122 
COMPS,ioos:station:USF.COMPS:ARP:1,2016-02-01T08:30:00Z,28.4330,-82.6670,82.73,1111122 
COMPS,ioos:station:USF.COMPS:ARP:1,2016-02-01T08:36:00Z,28.4330,-82.6670,82.85,1111122 
COMPS,ioos:station:USF.COMPS:ARP:1,2016-02-01T08:42:00Z,28.4330,-82.6670,82.9,1111122 
COMPS,ioos:station:USF.COMPS:ARP:1,2016-02-01T08:48:00Z,28.4330,-82.6670,83.16,1111122 
COMPS,ioos:station:USF.COMPS:ARP:1,2016-02-01T08:54:00Z,28.4330,-82.6670,83.38,1111122 
COMPS,ioos:station:USF.COMPS:ARP:1,2016-02-01T09:00:00Z,28.4330,-82.6670,83.82,1111122 
COMPS,ioos:station:USF.COMPS:ARP:1,2016-02-01T09:06:00Z,28.4330,-82.6670,83.95,1111122 
COMPS,ioos:station:USF.COMPS:ARP:1,2016-02-01T09:12:00Z,28.4330,-82.6670,84.05,1111122 
COMPS,ioos:station:USF.COMPS:ARP:1,2016-02-01T09:18:00Z,28.4330,-82.6670,83.81,1111122 
COMPS,ioos:station:USF.COMPS:ARP:1,2016-02-01T09:24:00Z,28.4330,-82.6670,83.68,1111122 
COMPS,ioos:station:USF.COMPS:ARP:1,2016-02-01T09:30:00Z,28.4330,-82.6670,83.87,1111122 
COMPS,ioos:station:USF.COMPS:ARP:1,2016-02-01T09:36:00Z,28.4330,-82.6670,83.9,1111122 
COMPS,ioos:station:USF.COMPS:ARP:1,2016-02-01T09:42:00Z,28.4330,-82.6670,83.8,1111122 
COMPS,ioos:station:USF.COMPS:ARP:1,2016-02-01T09:48:00Z,28.4330,-82.6670,83.75,1111122 
COMPS,ioos:station:USF.COMPS:ARP:1,2016-02-01T09:54:00Z,28.4330,-82.6670,83.65,1111122 
COMPS,ioos:station:USF.COMPS:ARP:1,2016-02-01T10:00:00Z,28.4330,-82.6670,83.57,1111122 
COMPS,ioos:station:USF.COMPS:ARP:1,2016-02-01T10:06:00Z,28.4330,-82.6670,83.63,1111122 
COMPS,ioos:station:USF.COMPS:ARP:1,2016-02-01T10:12:00Z,28.4330,-82.6670,83.66,1111122 
COMPS,ioos:station:USF.COMPS:ARP:1,2016-02-01T10:18:00Z,28.4330,-82.6670,83.49,1111122 
COMPS,ioos:station:USF.COMPS:ARP:1,2016-02-01T10:24:00Z,28.4330,-82.6670,83.34,1111122 
COMPS,ioos:station:USF.COMPS:ARP:1,2016-02-01T10:30:00Z,28.4330,-82.6670,83.1,1111122 
COMPS,ioos:station:USF.COMPS:ARP:1,2016-02-01T10:36:00Z,28.4330,-82.6670,83.0,1111122 
COMPS,ioos:station:USF.COMPS:ARP:1,2016-02-01T10:42:00Z,28.4330,-82.6670,82.99,1111122 
COMPS,ioos:station:USF.COMPS:ARP:1,2016-02-01T10:48:00Z,28.4330,-82.6670,83.04,1111122 
COMPS,ioos:station:USF.COMPS:ARP:1,2016-02-01T10:54:00Z,28.4330,-82.6670,83.2,1111122 
COMPS,ioos:station:USF.COMPS:ARP:1,2016-02-01T11:00:00Z,28.4330,-82.6670,83.54,1111122 
COMPS,ioos:station:USF.COMPS:ARP:1,2016-02-01T11:06:00Z,28.4330,-82.6670,83.38,1111122 
COMPS,ioos:station:USF.COMPS:ARP:1,2016-02-01T11:12:00Z,28.4330,-82.6670,82.56,1111122 
COMPS,ioos:station:USF.COMPS:ARP:1,2016-02-01T11:18:00Z,28.4330,-82.6670,81.5,1111122 
COMPS,ioos:station:USF.COMPS:ARP:1,2016-02-01T11:24:00Z,28.4330,-82.6670,81.56,1111122 
COMPS,ioos:station:USF.COMPS:ARP:1,2016-02-01T11:30:00Z,28.4330,-82.6670,81.92,1111122 
COMPS,ioos:station:USF.COMPS:ARP:1,2016-02-01T11:36:00Z,28.4330,-82.6670,82.3,1111122 
COMPS,ioos:station:USF.COMPS:ARP:1,2016-02-01T11:42:00Z,28.4330,-82.6670,82.96,1111122 
COMPS,ioos:station:USF.COMPS:ARP:1,2016-02-01T11:48:00Z,28.4330,-82.6670,83.63,1111122 
COMPS,ioos:station:USF.COMPS:ARP:1,2016-02-01T11:54:00Z,28.4330,-82.6670,84.06,1111122 
COMPS,ioos:station:USF.COMPS:ARP:1,2016-02-01T12:00:00Z,28.4330,-82.6670,84.69,1111122 
COMPS,ioos:station:USF.COMPS:ARP:1,2016-02-01T12:06:00Z,28.4330,-82.6670,85.15,1111122 
COMPS,ioos:station:USF.COMPS:ARP:1,2016-02-01T12:12:00Z,28.4330,-82.6670,85.51,1111122 
COMPS,ioos:station:USF.COMPS:ARP:1,2016-02-01T12:18:00Z,28.4330,-82.6670,85.87,1111122 
COMPS,ioos:station:USF.COMPS:ARP:1,2016-02-01T12:24:00Z,28.4330,-82.6670,86.25,1111122 
COMPS,ioos:station:USF.COMPS:ARP:1,2016-02-01T12:30:00Z,28.4330,-82.6670,86.79,1111122 
COMPS,ioos:station:USF.COMPS:ARP:1,2016-02-01T12:36:00Z,28.4330,-82.6670,86.98,1111122 
COMPS,ioos:station:USF.COMPS:ARP:1,2016-02-01T12:42:00Z,28.4330,-82.6670,87.19,1111122 
COMPS,ioos:station:USF.COMPS:ARP:1,2016-02-01T12:48:00Z,28.4330,-82.6670,87.36,1111122 
COMPS,ioos:station:USF.COMPS:ARP:1,2016-02-01T12:54:00Z,28.4330,-82.6670,87.15,1111122 
COMPS,ioos:station:USF.COMPS:ARP:1,2016-02-01T13:00:00Z,28.4330,-82.6670,87.03,1111122 
COMPS,ioos:station:USF.COMPS:ARP:1,2016-02-01T13:06:00Z,28.4330,-82.6670,86.65,1111122 
COMPS,ioos:station:USF.COMPS:ARP:1,2016-02-01T13:12:00Z,28.4330,-82.6670,86.58,1111122 
COMPS,ioos:station:USF.COMPS:ARP:1,2016-02-01T13:18:00Z,28.4330,-82.6670,86.37,1111122 
COMPS,ioos:station:USF.COMPS:ARP:1,2016-02-01T13:24:00Z,28.4330,-82.6670,86.13,1111122 
COMPS,ioos:station:USF.COMPS:ARP:1,2016-02-01T13:30:00Z,28.4330,-82.6670,85.71,1111122 
COMPS,ioos:station:USF.COMPS:ARP:1,2016-02-01T13:36:00Z,28.4330,-82.6670,85.38,1111122 
COMPS,ioos:station:USF.COMPS:ARP:1,2016-02-01T13:42:00Z,28.4330,-82.6670,85.37,1111122 
COMPS,ioos:station:USF.COMPS:ARP:1,2016-02-01T13:48:00Z,28.4330,-82.6670,85.28,1111122 
COMPS,ioos:station:USF.COMPS:ARP:1,2016-02-01T13:54:00Z,28.4330,-82.6670,85.15,1111122 
COMPS,ioos:station:USF.COMPS:ARP:1,2016-02-01T14:00:00Z,28.4330,-82.6670,85.09,1111122 
COMPS,ioos:station:USF.COMPS:ARP:1,2016-02-01T14:06:00Z,28.4330,-82.6670,85.08,1111122 
COMPS,ioos:station:USF.COMPS:ARP:1,2016-02-01T14:12:00Z,28.4330,-82.6670,84.62,1111122 
COMPS,ioos:station:USF.COMPS:ARP:1,2016-02-01T14:18:00Z,28.4330,-82.6670,84.23,1111122 
COMPS,ioos:station:USF.COMPS:ARP:1,2016-02-01T14:24:00Z,28.4330,-82.6670,83.53,1111122 
COMPS,ioos:station:USF.COMPS:ARP:1,2016-02-01T14:30:00Z,28.4330,-82.6670,82.55,1111122 
COMPS,ioos:station:USF.COMPS:ARP:1,2016-02-01T14:36:00Z,28.4330,-82.6670,81.37,1111122 
COMPS,ioos:station:USF.COMPS:ARP:1,2016-02-01T14:42:00Z,28.4330,-82.6670,81.04,1111122 
COMPS,ioos:station:USF.COMPS:ARP:1,2016-02-01T14:48:00Z,28.4330,-82.6670,80.81,1111122 
COMPS,ioos:station:USF.COMPS:ARP:1,2016-02-01T14:54:00Z,28.4330,-82.6670,80.94,1111122 
COMPS,ioos:station:USF.COMPS:ARP:1,2016-02-01T15:00:00Z,28.4330,-82.6670,81.06,1111122 
COMPS,ioos:station:USF.COMPS:ARP:1,2016-02-01T15:06:00Z,28.4330,-82.6670,80.8,1111122 
COMPS,ioos:station:USF.COMPS:ARP:1,2016-02-01T15:12:00Z,28.4330,-82.6670,80.15,1111122 
COMPS,ioos:station:USF.COMPS:ARP:1,2016-02-01T15:18:00Z,28.4330,-82.6670,79.68,1111122 
COMPS,ioos:station:USF.COMPS:ARP:1,2016-02-01T15:24:00Z,28.4330,-82.6670,78.8,1111122 
COMPS,ioos:station:USF.COMPS:ARP:1,2016-02-01T15:30:00Z,28.4330,-82.6670,78.31,1111122 
COMPS,ioos:station:USF.COMPS:ARP:1,2016-02-01T15:36:00Z,28.4330,-82.6670,77.95,1111122 
COMPS,ioos:station:USF.COMPS:ARP:1,2016-02-01T15:42:00Z,28.4330,-82.6670,77.42,1111122 
COMPS,ioos:station:USF.COMPS:ARP:1,2016-02-01T15:48:00Z,28.4330,-82.6670,77.21,1111122 
COMPS,ioos:station:USF.COMPS:ARP:1,2016-02-01T15:54:00Z,28.4330,-82.6670,76.77,1111122 
COMPS,ioos:station:USF.COMPS:ARP:1,2016-02-01T16:00:00Z,28.4330,-82.6670,76.01,1111122 
COMPS,ioos:station:USF.COMPS:ARP:1,2016-02-01T16:06:00Z,28.4330,-82.6670,74.82,1111122 
COMPS,ioos:station:USF.COMPS:ARP:1,2016-02-01T16:12:00Z,28.4330,-82.6670,74.08,1111122 
COMPS,ioos:station:USF.COMPS:ARP:1,2016-02-01T16:18:00Z,28.4330,-82.6670,74.1,1111122 
COMPS,ioos:station:USF.COMPS:ARP:1,2016-02-01T16:24:00Z,28.4330,-82.6670,74.45,1111122 
COMPS,ioos:station:USF.COMPS:ARP:1,2016-02-01T16:30:00Z,28.4330,-82.6670,74.01,1111122 
COMPS,ioos:station:USF.COMPS:ARP:1,2016-02-01T16:36:00Z,28.4330,-82.6670,73.55,1111122 
COMPS,ioos:station:USF.COMPS:ARP:1,2016-02-01T16:42:00Z,28.4330,-82.6670,72.59,1111122 
COMPS,ioos:station:USF.COMPS:ARP:1,2016-02-01T16:48:00Z,28.4330,-82.6670,74.09,1111122 
COMPS,ioos:station:USF.COMPS:ARP:1,2016-02-01T16:54:00Z,28.4330,-82.6670,77.11,1111122 
COMPS,ioos:station:USF.COMPS:ARP:1,2016-02-01T17:00:00Z,28.4330,-82.6670,77.52,1111122 
COMPS,ioos:station:USF.COMPS:ARP:1,2016-02-01T17:06:00Z,28.4330,-82.6670,77.78,1111122 
COMPS,ioos:station:USF.COMPS:ARP:1,2016-02-01T17:12:00Z,28.4330,-82.6670,77.5,1111122 
COMPS,ioos:station:USF.COMPS:ARP:1,2016-02-01T17:18:00Z,28.4330,-82.6670,77.15,1111122 
COMPS,ioos:station:USF.COMPS:ARP:1,2016-02-01T17:24:00Z,28.4330,-82.6670,76.76,1111122 
COMPS,ioos:station:USF.COMPS:ARP:1,2016-02-01T17:30:00Z,28.4330,-82.6670,77.25,1111122 
COMPS,ioos:station:USF.COMPS:ARP:1,2016-02-01T17:36:00Z,28.4330,-82.6670,78.23,1111122 
COMPS,ioos:station:USF.COMPS:ARP:1,2016-02-01T17:42:00Z,28.4330,-82.6670,77.5,1111122 
COMPS,ioos:station:USF.COMPS:ARP:1,2016-02-01T17:48:00Z,28.4330,-82.6670,77.4,1111122 
COMPS,ioos:station:USF.COMPS:ARP:1,2016-02-01T17:54:00Z,28.4330,-82.6670,78.15,1111122 
COMPS,ioos:station:USF.COMPS:ARP:1,2016-02-01T18:00:00Z,28.4330,-82.6670,79.39,1111122 
COMPS,ioos:station:USF.COMPS:ARP:1,2016-02-01T18:06:00Z,28.4330,-82.6670,79.64,1111122 
COMPS,ioos:station:USF.COMPS:ARP:1,2016-02-01T18:12:00Z,28.4330,-82.6670,79.63,1111122 
COMPS,ioos:station:USF.COMPS:ARP:1,2016-02-01T18:18:00Z,28.4330,-82.6670,81.4,1111122 
COMPS,ioos:station:USF.COMPS:ARP:1,2016-02-01T18:24:00Z,28.4330,-82.6670,80.43,1111122 
COMPS,ioos:station:USF.COMPS:ARP:1,2016-02-01T18:30:00Z,28.4330,-82.6670,80.31,1111122 
COMPS,ioos:station:USF.COMPS:ARP:1,2016-02-01T18:36:00Z,28.4330,-82.6670,80.92,1111122 
COMPS,ioos:station:USF.COMPS:ARP:1,2016-02-01T18:42:00Z,28.4330,-82.6670,81.45,1111122 
COMPS,ioos:station:USF.COMPS:ARP:1,2016-02-01T18:48:00Z,28.4330,-82.6670,82.32,1111122 
COMPS,ioos:station:USF.COMPS:ARP:1,2016-02-01T18:54:00Z,28.4330,-82.6670,82.45,1111122 
COMPS,ioos:station:USF.COMPS:ARP:1,2016-02-01T19:00:00Z,28.4330,-82.6670,82.92,1111122 
COMPS,ioos:station:USF.COMPS:ARP:1,2016-02-01T19:06:00Z,28.4330,-82.6670,82.86,1111122 
COMPS,ioos:station:USF.COMPS:ARP:1,2016-02-01T19:12:00Z,28.4330,-82.6670,82.19,1111122 
COMPS,ioos:station:USF.COMPS:ARP:1,2016-02-01T19:18:00Z,28.4330,-82.6670,81.86,1111122 
COMPS,ioos:station:USF.COMPS:ARP:1,2016-02-01T19:24:00Z,28.4330,-82.6670,82.32,1111122 
COMPS,ioos:station:USF.COMPS:ARP:1,2016-02-01T19:30:00Z,28.4330,-82.6670,81.07,1111122 
COMPS,ioos:station:USF.COMPS:ARP:1,2016-02-01T19:36:00Z,28.4330,-82.6670,81.46,1111122 
COMPS,ioos:station:USF.COMPS:ARP:1,2016-02-01T19:42:00Z,28.4330,-82.6670,81.62,1111122 
COMPS,ioos:station:USF.COMPS:ARP:1,2016-02-01T19:48:00Z,28.4330,-82.6670,82.39,1111122 
COMPS,ioos:station:USF.COMPS:ARP:1,2016-02-01T19:54:00Z,28.4330,-82.6670,83.21,1111122 
COMPS,ioos:station:USF.COMPS:ARP:1,2016-02-01T20:00:00Z,28.4330,-82.6670,84.19,1111122 
COMPS,ioos:station:USF.COMPS:ARP:1,2016-02-01T20:06:00Z,28.4330,-82.6670,83.33,1111122 
COMPS,ioos:station:USF.COMPS:ARP:1,2016-02-01T20:12:00Z,28.4330,-82.6670,83.31,1111122 
COMPS,ioos:station:USF.COMPS:ARP:1,2016-02-01T20:18:00Z,28.4330,-82.6670,81.92,1111122 
COMPS,ioos:station:USF.COMPS:ARP:1,2016-02-01T20:24:00Z,28.4330,-82.6670,82.28,1111122 
COMPS,ioos:station:USF.COMPS:ARP:1,2016-02-01T20:30:00Z,28.4330,-82.6670,82.43,1111122 
COMPS,ioos:station:USF.COMPS:ARP:1,2016-02-01T20:36:00Z,28.4330,-82.6670,81.85,1111122 
COMPS,ioos:station:USF.COMPS:ARP:1,2016-02-01T20:42:00Z,28.4330,-82.6670,82.04,1111122 
COMPS,ioos:station:USF.COMPS:ARP:1,2016-02-01T20:48:00Z,28.4330,-82.6670,82.71,1111122 
COMPS,ioos:station:USF.COMPS:ARP:1,2016-02-01T20:54:00Z,28.4330,-82.6670,82.77,1111122 
COMPS,ioos:station:USF.COMPS:ARP:1,2016-02-01T21:00:00Z,28.4330,-82.6670,82.8,1111122 
COMPS,ioos:station:USF.COMPS:ARP:1,2016-02-01T21:06:00Z,28.4330,-82.6670,82.89,1111122 
COMPS,ioos:station:USF.COMPS:ARP:1,2016-02-01T21:12:00Z,28.4330,-82.6670,83.41,1111122 
COMPS,ioos:station:USF.COMPS:ARP:1,2016-02-01T21:18:00Z,28.4330,-82.6670,83.62,1111122 
COMPS,ioos:station:USF.COMPS:ARP:1,2016-02-01T21:24:00Z,28.4330,-82.6670,83.68,1111122 
COMPS,ioos:station:USF.COMPS:ARP:1,2016-02-01T21:30:00Z,28.4330,-82.6670,84.35,1111122 
COMPS,ioos:station:USF.COMPS:ARP:1,2016-02-01T21:36:00Z,28.4330,-82.6670,84.15,1111122 
COMPS,ioos:station:USF.COMPS:ARP:1,2016-02-01T21:42:00Z,28.4330,-82.6670,84.73,1111122 
COMPS,ioos:station:USF.COMPS:ARP:1,2016-02-01T21:48:00Z,28.4330,-82.6670,85.81,1111122 
COMPS,ioos:station:USF.COMPS:ARP:1,2016-02-01T21:54:00Z,28.4330,-82.6670,86.32,1111122 
COMPS,ioos:station:USF.COMPS:ARP:1,2016-02-01T22:00:00Z,28.4330,-82.6670,87.53,1111122 
COMPS,ioos:station:USF.COMPS:ARP:1,2016-02-01T22:06:00Z,28.4330,-82.6670,88.21,1111122 
COMPS,ioos:station:USF.COMPS:ARP:1,2016-02-01T22:12:00Z,28.4330,-82.6670,88.86,1111122 
COMPS,ioos:station:USF.COMPS:ARP:1,2016-02-01T22:18:00Z,28.4330,-82.6670,89.92,1111122 
COMPS,ioos:station:USF.COMPS:ARP:1,2016-02-01T22:24:00Z,28.4330,-82.6670,90.92,1111122 
COMPS,ioos:station:USF.COMPS:ARP:1,2016-02-01T22:30:00Z,28.4330,-82.6670,91.6,1111122 
COMPS,ioos:station:USF.COMPS:ARP:1,2016-02-01T22:36:00Z,28.4330,-82.6670,91.64,1111122 
COMPS,ioos:station:USF.COMPS:ARP:1,2016-02-01T22:42:00Z,28.4330,-82.6670,91.77,1111122 
COMPS,ioos:station:USF.COMPS:ARP:1,2016-02-01T22:48:00Z,28.4330,-82.6670,92.06,1111122 
COMPS,ioos:station:USF.COMPS:ARP:1,2016-02-01T22:54:00Z,28.4330,-82.6670,92.52,1111122 
COMPS,ioos:station:USF.COMPS:ARP:1,2016-02-01T23:00:00Z,28.4330,-82.6670,93.19,1111122 
COMPS,ioos:station:USF.COMPS:ARP:1,2016-02-01T23:06:00Z,28.4330,-82.6670,93.62,1111122 
COMPS,ioos:station:USF.COMPS:ARP:1,2016-02-01T23:12:00Z,28.4330,-82.6670,94.02,1111122 
COMPS,ioos:station:USF.COMPS:ARP:1,2016-02-01T23:18:00Z,28.4330,-82.6670,94.37,1111122 
COMPS,ioos:station:USF.COMPS:ARP:1,2016-02-01T23:24:00Z,28.4330,-82.6670,94.75,1111122 
COMPS,ioos:station:USF.COMPS:ARP:1,2016-02-01T23:30:00Z,28.4330,-82.6670,95.02,1111122 
COMPS,ioos:station:USF.COMPS:ARP:1,2016-02-01T23:36:00Z,28.4330,-82.6670,95.16,1111122 
COMPS,ioos:station:USF.COMPS:ARP:1,2016-02-01T23:42:00Z,28.4330,-82.6670,95.24,1111122 
COMPS,ioos:station:USF.COMPS:ARP:1,2016-02-01T23:48:00Z,28.4330,-82.6670,95.35,1111122 
COMPS,ioos:station:USF.COMPS:ARP:1,2016-02-01T23:54:00Z,28.4330,-82.6670,95.43,1111122 
COMPS,ioos:station:USF.COMPS:ARP:1,2016-02-02T00:00:00Z,28.4330,-82.6670,95.6,1111122 
COMPS,ioos:station:USF.COMPS:ARP:1,2016-02-02T00:06:00Z,28.4330,-82.6670,95.64,1111122 
COMPS,ioos:station:USF.COMPS:ARP:1,2016-02-02T00:12:00Z,28.4330,-82.6670,95.69,1111122 
COMPS,ioos:station:USF.COMPS:ARP:1,2016-02-02T00:18:00Z,28.4330,-82.6670,95.78,1111122 
COMPS,ioos:station:USF.COMPS:ARP:1,2016-02-02T00:24:00Z,28.4330,-82.6670,95.79,1111122 
COMPS,ioos:station:USF.COMPS:ARP:1,2016-02-02T00:30:00Z,28.4330,-82.6670,95.82,1111122 
COMPS,ioos:station:USF.COMPS:ARP:1,2016-02-02T00:36:00Z,28.4330,-82.6670,95.89,1111122 
COMPS,ioos:station:USF.COMPS:ARP:1,2016-02-02T00:42:00Z,28.4330,-82.6670,95.91,1111122 
COMPS,ioos:station:USF.COMPS:ARP:1,2016-02-02T00:48:00Z,28.4330,-82.6670,95.99,1111122 
COMPS,ioos:station:USF.COMPS:ARP:1,2016-02-02T00:54:00Z,28.4330,-82.6670,95.87,1111122 
COMPS,ioos:station:USF.COMPS:ARP:1,2016-02-02T01:00:00Z,28.4330,-82.6670,95.87,1111122 
COMPS,ioos:station:USF.COMPS:ARP:1,2016-02-02T01:06:00Z,28.4330,-82.6670,95.96,1111122 
COMPS,ioos:station:USF.COMPS:ARP:1,2016-02-02T01:12:00Z,28.4330,-82.6670,95.99,1111122 
COMPS,ioos:station:USF.COMPS:ARP:1,2016-02-02T01:18:00Z,28.4330,-82.6670,96.02,1111122 
COMPS,ioos:station:USF.COMPS:ARP:1,2016-02-02T01:24:00Z,28.4330,-82.6670,96.06,1111122 
COMPS,ioos:station:USF.COMPS:ARP:1,2016-02-02T01:30:00Z,28.4330,-82.6670,96.22,1111122 
COMPS,ioos:station:USF.COMPS:ARP:1,2016-02-02T01:36:00Z,28.4330,-82.6670,96.25,1111122 
COMPS,ioos:station:USF.COMPS:ARP:1,2016-02-02T01:42:00Z,28.4330,-82.6670,96.38,1111122 
COMPS,ioos:station:USF.COMPS:ARP:1,2016-02-02T01:48:00Z,28.4330,-82.6670,96.4,1111122 
COMPS,ioos:station:USF.COMPS:ARP:1,2016-02-02T01:54:00Z,28.4330,-82.6670,96.51,1111122 
COMPS,ioos:station:USF.COMPS:ARP:1,2016-02-02T03:00:00Z,28.4330,-82.6670,97.31,1111122 
COMPS,ioos:station:USF.COMPS:ARP:1,2016-02-02T03:06:00Z,28.4330,-82.6670,97.59,1111122 
COMPS,ioos:station:USF.COMPS:ARP:1,2016-02-02T03:12:00Z,28.4330,-82.6670,97.61,1111122 
COMPS,ioos:station:USF.COMPS:ARP:1,2016-02-02T03:18:00Z,28.4330,-82.6670,97.65,1111122 
COMPS,ioos:station:USF.COMPS:ARP:1,2016-02-02T03:24:00Z,28.4330,-82.6670,97.8,1111122 
COMPS,ioos:station:USF.COMPS:ARP:1,2016-02-02T03:30:00Z,28.4330,-82.6670,97.78,1111122 
COMPS,ioos:station:USF.COMPS:ARP:1,2016-02-02T03:36:00Z,28.4330,-82.6670,97.86,1111122 
COMPS,ioos:station:USF.COMPS:ARP:1,2016-02-02T03:42:00Z,28.4330,-82.6670,98.02,1111122 
COMPS,ioos:station:USF.COMPS:ARP:1,2016-02-02T03:48:00Z,28.4330,-82.6670,97.96,1111122 
COMPS,ioos:station:USF.COMPS:ARP:1,2016-02-02T03:54:00Z,28.4330,-82.6670,98.05,1111122 
COMPS,ioos:station:USF.COMPS:ARP:1,2016-02-02T04:00:00Z,28.4330,-82.6670,98.12,1111122 
COMPS,ioos:station:USF.COMPS:ARP:1,2016-02-02T04:06:00Z,28.4330,-82.6670,98.2,1111122 
COMPS,ioos:station:USF.COMPS:ARP:1,2016-02-02T04:12:00Z,28.4330,-82.6670,98.33,1111122 
COMPS,ioos:station:USF.COMPS:ARP:1,2016-02-02T04:18:00Z,28.4330,-82.6670,98.29,1111122 
COMPS,ioos:station:USF.COMPS:ARP:1,2016-02-02T04:24:00Z,28.4330,-82.6670,98.32,1111122 
COMPS,ioos:station:USF.COMPS:ARP:1,2016-02-02T04:30:00Z,28.4330,-82.6670,98.38,1111122 
COMPS,ioos:station:USF.COMPS:ARP:1,2016-02-02T04:36:00Z,28.4330,-82.6670,98.57,1111122 
COMPS,ioos:station:USF.COMPS:ARP:1,2016-02-02T04:42:00Z,28.4330,-82.6670,98.56,1111122 
COMPS,ioos:station:USF.COMPS:ARP:1,2016-02-02T04:48:00Z,28.4330,-82.6670,98.55,1111122 
COMPS,ioos:station:USF.COMPS:ARP:1,2016-02-02T04:54:00Z,28.4330,-82.6670,98.6,1111122 
COMPS,ioos:station:USF.COMPS:ARP:1,2016-02-02T05:00:00Z,28.4330,-82.6670,98.62,1111122 
COMPS,ioos:station:USF.COMPS:ARP:1,2016-02-02T05:06:00Z,28.4330,-82.6670,98.71,1111122 
COMPS,ioos:station:USF.COMPS:ARP:1,2016-02-02T05:12:00Z,28.4330,-82.6670,98.74,1111122 
COMPS,ioos:station:USF.COMPS:ARP:1,2016-02-02T05:18:00Z,28.4330,-82.6670,98.85,1111122 
COMPS,ioos:station:USF.COMPS:ARP:1,2016-02-02T05:24:00Z,28.4330,-82.6670,98.86,1111122 
COMPS,ioos:station:USF.COMPS:ARP:1,2016-02-02T05:30:00Z,28.4330,-82.6670,99.0,1111122 
COMPS,ioos:station:USF.COMPS:ARP:1,2016-02-02T05:36:00Z,28.4330,-82.6670,99.05,1111122 
COMPS,ioos:station:USF.COMPS:ARP:1,2016-02-02T05:42:00Z,28.4330,-82.6670,99.03,1111122 
COMPS,ioos:station:USF.COMPS:ARP:1,2016-02-02T05:48:00Z,28.4330,-82.6670,99.14,1111122 
COMPS,ioos:station:USF.COMPS:ARP:1,2016-02-02T05:54:00Z,28.4330,-82.6670,99.3,1111122 
COMPS,ioos:station:USF.COMPS:ARP:1,2016-02-02T06:00:00Z,28.4330,-82.6670,99.36,1111122 
COMPS,ioos:station:USF.COMPS:ARP:1,2016-02-02T06:06:00Z,28.4330,-82.6670,99.49,1111122 